This is the latest recevied weather packets stored in our database for station/object WC4PEM-1. If no packets are shown the sender has not sent any weather packets the latest 10 day(s).
| Time | Temp. | Humidity | Pressure | Rain* | Wind** | Luminosity | Snow |
|---|---|---|---|---|---|---|---|
| 1777309125 | 28.89° C | 56% | 1015.3 hPa | 0 mm | - | 179 W/m² | - |
| 1777308825 | 29.44° C | 56% | 1015.3 hPa | 0 mm | - | 1150 W/m² | - |
| 1777308525 | 29.44° C | 56% | 1015.3 hPa | 0 mm | - | 1074 W/m² | - |
| 1777308225 | 29.44° C | 57% | 1015.4 hPa | 0 mm | - | 995 W/m² | - |
| 1777307927 | 28.89° C | 58% | 1015.5 hPa | 0 mm | - | 1046 W/m² | - |
| 1777307625 | 28.89° C | 58% | 1015.4 hPa | 0 mm | - | 1063 W/m² | - |
| 1777307325 | 28.89° C | 59% | 1015.4 hPa | 0 mm | - | 1039 W/m² | - |
| 1777307025 | 28.89° C | 59% | 1015.4 hPa | 0 mm | - | 1102 W/m² | - |
| 1777306725 | 28.33° C | 60% | 1015.5 hPa | 0 mm | - | 1034 W/m² | - |
| 1777306425 | 28.33° C | 61% | 1015.4 hPa | 0 mm | - | 1025 W/m² | - |
| 1777306125 | 28.89° C | 59% | 1015.4 hPa | 0 mm | - | 197 W/m² | - |
| 1777305825 | 29.44° C | 58% | 1015.4 hPa | 0 mm | - | 1020 W/m² | - |
| 1777305525 | 28.89° C | 58% | 1015.4 hPa | 0 mm | - | 947 W/m² | - |
| 1777305225 | 28.89° C | 59% | 1015.4 hPa | 0 mm | - | 918 W/m² | - |
| 1777304925 | 28.89° C | 60% | 1015.4 hPa | 0 mm | - | 930 W/m² | - |
| 1777304625 | 28.33° C | 61% | 1015.5 hPa | 0 mm | - | 889 W/m² | - |
| 1777304325 | 28.33° C | 61% | 1015.5 hPa | 0 mm | - | 846 W/m² | - |
| 1777304025 | 28.33° C | 61% | 1015.5 hPa | 0 mm | - | 830 W/m² | - |
| 1777303725 | 28.33° C | 61% | 1015.4 hPa | 0 mm | - | 809 W/m² | - |
| 1777303425 | 27.78° C | 62% | 1015.4 hPa | 0 mm | - | 772 W/m² | - |
| 1777303125 | 27.78° C | 63% | 1015.4 hPa | 0 mm | - | 766 W/m² | - |
| 1777302826 | 27.78° C | 63% | 1015.4 hPa | 0 mm | - | 756 W/m² | - |
| 1777302525 | 27.78° C | 64% | 1015.4 hPa | 0 mm | - | 761 W/m² | - |
| 1777302226 | 27.78° C | 66% | 1015.4 hPa | 0 mm | - | 768 W/m² | - |
| 1777301925 | 27.22° C | 66% | 1015.3 hPa | 0 mm | - | 738 W/m² | - |
* Rain latest hour (hover to see other rain measurements)
** Current wind speed in m/s (hover to see current wind gust speed)